EW6292 Weather Reports


Display with metric or nautical units.
time (UTC)temp
F
wind
direction
speed
MPH
gust
MPH
rain 1hr
in
rain 24hr
in
rain mn
in
humidity
%
barometer
mb
20260906123850 75 175 0.0 0.0 0.00 0.00 0.00 89 1012.6
20260906123125 75 175 0.0 0.0 0.00 0.00 0.00 89 1012.7
20260906122620 75 175 0.0 0.0 0.00 0.00 0.00 88 1012.6
20260906122334 75 175 0.0 0.0 0.00 0.00 0.00 88 1012.6
20260906121608 74 175 0.0 0.0 0.00 0.00 0.00 88 1012.5
20260906121100 74 175 0.0 0.0 0.00 0.00 0.00 88 1012.4
20260906120556 74 317 0.0 0.0 0.00 0.00 0.00 88 1012.2
20260906120541 74 317 0.0 0.0 0.00 0.00 0.00 88 1012.0
20260906115542 74 239 0.0 0.0 0.00 0.00 0.00 88 1011.9
20260906115037 74 240 0.0 0.0 0.00 0.00 0.00 88 1011.9
20260906114530 74 240 0.0 1.0 0.00 0.00 0.00 88 1011.8
20260906114037 74 239 0.0 1.0 0.00 0.00 0.00 88 1011.7
20260906113525 75 337 0.0 0.0 0.00 0.00 0.00 88 1011.7
20260906113023 75 329 0.0 1.0 0.00 0.00 0.00 88 1011.5
20260906112741 75 329 1.0 3.0 0.00 0.00 0.00 88 1011.5
20260906112021 75 335 1.0 3.0 0.00 0.00 0.00 88 1011.4
20260906111743 75 0 1.0 2.0 0.00 0.00 0.00 87 1011.4
20260906111021 75 348 1.0 3.0 0.00 0.00 0.00 87 1011.4
20260906110521 75 348 2.0 4.0 0.00 0.00 0.00 87 1011.2
20260906110019 75 331 2.0 4.0 0.00 0.00 0.00 87 1011.2
20260906105519 75 337 0.0 3.0 0.00 0.00 0.00 87 1011.1
20260906105018 75 304 0.0 0.0 0.00 0.00 0.00 87 1011.2
20260906104744 75 304 0.0 0.0 0.00 0.00 0.00 87 1011.1
20260906104017 75 304 0.0 0.0 0.00 0.00 0.00 86 1011.1
20260906103517 75 304 0.0 0.0 0.00 0.00 0.00 87 1011.0
20260906103015 75 24 0.0 0.0 0.00 0.00 0.00 86 1010.9
20260906102512 75 24 0.0 0.0 0.00 0.00 0.00 86 1011.0
20260906102247 76 24 0.0 0.0 0.00 0.00 0.00 86 1010.9
20260906101509 76 24 0.0 0.0 0.00 0.00 0.00 86 1010.8
20260906101020 76 24 0.0 0.0 0.00 0.00 0.00 85 1010.7
20260906100510 76 24 0.0 0.0 0.00 0.00 0.00 85 1010.7
20260906100002 76 24 0.0 0.0 0.00 0.00 0.00 85 1010.6
20260906095456 76 24 0.0 0.0 0.00 0.00 0.00 84 1010.6
20260906095215 76 24 0.0 0.0 0.00 0.00 0.00 84 1010.7
20260906094449 76 24 0.0 0.0 0.00 0.00 0.00 84 1010.6
20260906093949 76 24 0.0 0.0 0.00 0.00 0.00 84 1010.4
20260906093446 76 24 0.0 0.0 0.00 0.00 0.00 84 1010.5
20260906092947 76 24 0.0 0.0 0.00 0.00 0.00 84 1010.6
20260906092708 77 24 0.0 0.0 0.00 0.00 0.00 84 1010.6
20260906092157 77 24 0.0 0.0 0.00 0.00 0.00 84 1010.6
20260906092045 77 24 0.0 0.0 0.00 0.00 0.00 84 1010.7
20260906091206 77 24 0.0 0.0 0.00 0.00 0.00 84 1010.6
20260906090445 77 24 0.0 0.0 0.00 0.00 0.00 83 1010.7
20260906085945 77 24 0.0 0.0 0.00 0.00 0.00 83 1010.7
20260906085709 77 24 0.0 0.0 0.00 0.00 0.00 83 1010.7
20260906084944 77 24 0.0 0.0 0.00 0.00 0.00 83 1010.6
20260906084706 77 355 0.0 0.0 0.00 0.00 0.00 83 1010.6
20260906084203 77 355 0.0 0.0 0.00 0.00 0.00 83 1010.7
20260906083445 77 355 0.0 0.0 0.00 0.00 0.00 83 1010.5
20260906082945 77 355 0.0 0.0 0.00 0.00 0.00 83 1010.4
20260906082455 77 355 0.0 0.0 0.00 0.00 0.00 83 1010.5
20260906081940 77 355 0.0 0.0 0.00 0.00 0.00 83 1010.5
20260906081435 77 355 0.0 0.0 0.00 0.00 0.00 83 1010.4
20260906080929 77 355 0.0 0.0 0.00 0.00 0.00 83 1010.4
20260906080422 77 355 0.0 0.0 0.00 0.00 0.00 83 1010.4
20260906075917 77 355 0.0 0.0 0.00 0.00 0.00 84 1010.4
20260906075415 77 355 0.0 0.0 0.00 0.00 0.00 84 1010.4
20260906074915 77 355 0.0 3.0 0.00 0.00 0.00 84 1010.3
20260906074636 77 18 1.0 3.0 0.00 0.00 0.00 84 1010.3
20260906073911 77 355 0.0 3.0 0.00 0.00 0.00 84 1010.3
20260906073409 77 5 0.0 0.0 0.00 0.00 0.00 83 1010.3
20260906072907 77 5 0.0 0.0 0.00 0.00 0.00 83 1010.3
20260906072405 77 5 0.0 0.0 0.00 0.00 0.00 83 1010.3
20260906071903 77 5 0.0 0.0 0.00 0.00 0.00 82 1010.3
20260906071403 77 5 0.0 0.0 0.00 0.00 0.00 82 1010.2
20260906070902 78 5 0.0 0.0 0.00 0.00 0.00 82 1010.3
20260906070627 78 5 0.0 0.0 0.00 0.00 0.00 82 1010.2
20260906065859 78 5 0.0 0.0 0.00 0.00 0.00 82 1010.2
20260906065357 78 5 0.0 0.0 0.00 0.00 0.00 82 1010.3
20260906064854 78 5 0.0 0.0 0.00 0.00 0.00 82 1010.3
20260906064617 78 5 0.0 0.0 0.00 0.00 0.00 82 1010.3
20260906063857 78 5 0.0 0.0 0.00 0.00 0.00 82 1010.3
20260906063352 78 5 0.0 0.0 0.00 0.00 0.00 82 1010.4
20260906063114 78 5 0.0 0.0 0.00 0.00 0.00 82 1010.5
20260906062609 78 5 0.0 0.0 0.00 0.00 0.00 82 1010.5
20260906061853 78 5 0.0 0.0 0.00 0.00 0.00 82 1010.6
20260906061346 78 5 0.0 0.0 0.00 0.00 0.00 82 1010.7
20260906060849 78 5 0.0 0.0 0.00 0.00 0.00 82 1010.8
20260906060346 78 5 0.0 0.0 0.00 0.00 0.00 82 1011.0
20260906055847 78 5 0.0 0.0 0.00 0.00 0.00 82 1011.1
20260906055347 78 5 0.0 0.0 0.00 0.00 0.00 82 1011.1
20260906054846 78 5 0.0 0.0 0.00 0.00 0.00 82 1011.1
20260906054610 78 5 0.0 0.0 0.00 0.00 0.00 82 1011.1
20260906054103 78 5 0.0 0.0 0.00 0.00 0.00 81 1011.0
20260906053611 78 5 0.0 0.0 0.00 0.00 0.00 81 1011.1
20260906052842 78 5 0.0 0.0 0.00 0.00 0.00 80 1011.1
20260906052602 78 5 0.0 0.0 0.00 0.00 0.00 80 1011.1
20260906052101 78 5 0.0 0.0 0.00 0.00 0.00 81 1011.1
20260906051342 78 5 0.0 1.0 0.00 0.00 0.00 81 1011.1
20260906050843 78 5 0.0 1.0 0.00 0.00 0.00 80 1011.1
20260906050342 78 5 0.0 0.0 0.00 0.00 0.00 80 1011.2
20260906045842 78 5 0.0 0.0 0.00 0.00 0.00 80 1011.4
20260906045342 78 5 0.0 1.0 0.00 0.00 0.00 80 1011.4
20260906044841 78 5 0.0 1.0 0.00 0.00 0.00 79 1011.2
20260906044340 79 5 0.0 2.0 0.00 0.00 0.00 78 1011.1
20260906044316 79 5 0.0 2.0 0.00 0.00 0.00 78 1011.2
20260906043338 79 5 0.0 0.0 0.00 0.00 0.00 79 1011.2
20260906042839 79 5 0.0 0.0 0.00 0.00 0.00 80 1011.2
20260906042338 79 5 0.0 0.0 0.00 0.00 0.00 80 1011.2
20260906041852 79 5 0.0 0.0 0.00 0.00 0.00 80 1011.2
20260906041338 79 5 0.0 0.0 0.00 0.00 0.00 80 1011.2
20260906040838 79 5 0.0 0.0 0.00 0.00 0.00 80 1011.2
20260906040336 79 5 0.0 0.0 0.00 0.00 0.00 80 1011.4
20260906035837 79 5 0.0 0.0 0.00 0.00 0.00 80 1011.2
20260906035337 79 5 0.0 0.0 0.00 0.00 0.00 80 1011.2
20260906034836 80 5 0.0 0.0 0.00 0.00 0.00 79 1011.0
20260906034336 80 5 0.0 0.0 0.00 0.00 0.00 79 1010.9
20260906033836 80 5 0.0 0.0 0.00 0.00 0.00 79 1010.8
20260906033337 80 5 0.0 0.0 0.00 0.00 0.00 78 1011.0
20260906032833 80 5 0.0 0.0 0.00 0.00 0.00 78 1010.9
20260906032332 80 5 0.0 0.0 0.00 0.00 0.00 77 1010.8
20260906031833 80 5 0.0 0.0 0.00 0.00 0.00 76 1010.8
20260906031332 80 5 0.0 0.0 0.00 0.00 0.00 77 1010.8
20260906031056 80 5 0.0 0.0 0.00 0.00 0.00 77 1010.6
20260906030332 80 5 0.0 0.0 0.00 0.00 0.00 77 1010.7
20260906025832 80 5 0.0 0.0 0.00 0.00 0.00 77 1010.7
20260906025332 80 5 0.0 0.0 0.00 0.00 0.00 76 1010.6
20260906025100 81 5 0.0 0.0 0.00 0.00 0.00 76 1010.6
20260906024553 81 5 0.0 0.0 0.00 0.00 0.00 76 1010.7
20260906023832 81 5 0.0 0.0 0.00 0.00 0.00 75 1010.6
20260906023332 81 5 0.0 0.0 0.00 0.00 0.00 75 1010.6
20260906022832 82 5 0.0 0.0 0.00 0.00 0.00 75 1010.6
20260906022333 82 5 0.0 0.0 0.00 0.00 0.00 75 1010.4
20260906021832 82 5 0.0 0.0 0.00 0.00 0.00 74 1010.4
20260906021332 82 5 0.0 0.0 0.00 0.00 0.00 73 1010.4
20260906020832 82 5 0.0 0.0 0.00 0.00 0.00 73 1010.3
20260906020330 83 5 0.0 0.0 0.00 0.00 0.00 73 1010.2
20260906015823 83 5 0.0 0.0 0.00 0.00 0.00 71 1010.0
20260906015324 83 5 0.0 0.0 0.00 0.00 0.00 70 1010.1
20260906014812 83 5 0.0 0.0 0.00 0.00 0.00 71 1010.0
20260906014305 83 5 0.0 0.0 0.00 0.00 0.00 71 1010.0
20260906013759 84 5 0.0 0.0 0.00 0.00 0.00 71 1010.0
20260906013253 84 5 0.0 0.0 0.00 0.00 0.00 70 1010.1
20260906012748 84 5 0.0 0.0 0.00 0.00 0.00 70 1010.0
20260906012242 84 5 0.0 0.0 0.00 0.00 0.00 69 1010.0
20260906011735 85 5 0.0 0.0 0.00 0.00 0.00 68 1009.9
20260906011229 85 5 0.0 0.0 0.00 0.00 0.00 69 1009.9
20260906010726 85 5 0.0 0.0 0.00 0.00 0.00 67 1009.9
20260906010438 86 5 0.0 0.0 0.00 0.00 0.00 67 1009.8
20260906005714 86 5 0.0 0.0 0.00 0.00 0.00 68 1009.8
20260906005205 86 5 0.0 0.0 0.00 0.00 0.00 66 1009.7
20260906004659 87 5 0.0 0.0 0.00 0.00 0.00 66 1009.6
20260906004153 87 5 0.0 0.0 0.00 0.00 0.00 66 1009.6
20260906003647 88 5 0.0 0.0 0.00 0.00 0.00 64 1009.6
20260906003410 88 5 0.0 0.0 0.00 0.00 0.00 63 1009.5
20260906002635 88 5 0.0 0.0 0.00 0.00 0.00 62 1009.6
20260906002130 89 5 0.0 0.0 0.00 0.00 0.00 62 1009.6
20260906001624 89 5 0.0 0.0 0.00 0.00 0.00 62 1009.7
20260906001118 89 5 0.0 0.0 0.00 0.00 0.00 62 1009.6
20260906000611 90 5 0.0 0.0 0.00 0.00 0.00 62 1009.8
20260906000106 90 5 0.0 0.0 0.00 0.00 0.00 60 1009.8
20260905235559 91 5 0.0 0.0 0.00 0.00 0.00 60 1009.9
20260905235054 91 5 0.0 0.0 0.00 0.00 0.00 59 1009.9
20260905234548 92 5 0.0 0.0 0.00 0.00 0.00 58 1009.9
20260905234308 93 5 0.0 0.0 0.00 0.00 0.00 57 1009.9
20260905233535 93 5 0.0 0.0 0.00 0.00 0.00 56 1009.8
20260905233032 94 5 0.0 0.0 0.00 0.00 0.00 56 1009.8
20260905232523 95 5 0.0 0.0 0.00 0.00 0.00 55 1009.8
20260905232018 95 5 0.0 0.0 0.00 0.00 0.00 53 1009.7
20260905231512 96 5 0.0 0.0 0.00 0.00 0.00 51 1009.7
20260905231005 97 5 0.0 0.0 0.00 0.00 0.00 49 1009.7
20260905230500 98 5 0.0 0.0 0.00 0.00 0.00 48 1009.7
20260905225952 99 5 0.0 0.0 0.00 0.00 0.00 48 1009.6
20260905225446 100 5 0.0 0.0 0.00 0.00 0.00 46 1009.6
20260905224939 100 5 0.0 0.0 0.00 0.00 0.00 46 1009.6
20260905224658 101 36 0.0 0.0 0.00 0.00 0.00 46 1009.6
20260905224149 101 173 0.0 0.0 0.00 0.00 0.00 45 1009.7
20260905223421 101 173 0.0 3.0 0.00 0.00 0.00 45 1009.7
20260905223141 101 173 0.0 3.0 0.00 0.00 0.00 44 1009.7
20260905222409 102 49 0.0 1.0 0.00 0.00 0.00 43 1009.8
20260905221904 102 49 0.0 2.0 0.00 0.00 0.00 44 1009.8
20260905221357 102 49 0.0 2.0 0.00 0.00 0.00 43 1009.7
20260905220851 102 5 0.0 1.0 0.00 0.00 0.00 44 1009.9
20260905220348 102 5 1.0 2.0 0.00 0.00 0.00 44 1009.8
20260905215840 103 5 2.0 4.0 0.00 0.00 0.00 41 1009.8
20260905215334 103 40 1.0 4.0 0.00 0.00 0.00 40 1009.7
20260905214828 103 55 1.0 3.0 0.00 0.00 0.00 39 1009.8
20260905214322 103 245 0.0 2.0 0.00 0.00 0.00 42 1009.8
20260905213816 103 18 0.0 1.0 0.00 0.00 0.00 42 1009.9
20260905213309 103 214 0.0 2.0 0.00 0.00 0.00 43 1009.9
20260905212803 103 292 0.0 2.0 0.00 0.00 0.00 41 1010.0
20260905212259 102 283 1.0 3.0 0.00 0.00 0.00 41 1010.0
20260905211751 102 225 2.0 8.0 0.00 0.00 0.00 41 1010.1
20260905211246 102 253 3.0 8.0 0.00 0.00 0.00 42 1010.0
20260905210739 103 327 2.0 5.0 0.00 0.00 0.00 41 1010.1
20260905210501 103 93 1.0 3.0 0.00 0.00 0.00 42 1010.1
20260905205730 103 169 1.0 3.0 0.00 0.00 0.00 45 1010.1
20260905205222 103 169 1.0 3.0 0.00 0.00 0.00 47 1010.1
20260905204716 102 215 1.0 4.0 0.00 0.00 0.00 44 1010.1
20260905204209 102 178 2.0 4.0 0.00 0.00 0.00 44 1010.2
20260905203704 102 211 2.0 6.0 0.00 0.00 0.00 42 1010.3
20260905203158 103 242 2.0 6.0 0.00 0.00 0.00 44 1010.4
20260905202651 102 238 2.0 6.0 0.00 0.00 0.00 44 1010.4
20260905202145 102 171 2.0 6.0 0.00 0.00 0.00 45 1010.5
20260905201639 102 254 1.0 3.0 0.00 0.00 0.00 46 1010.5
20260905201134 102 149 1.0 2.0 0.00 0.00 0.00 49 1010.7
20260905201117 101 124 1.0 2.0 0.00 0.00 0.00 47 1010.9
20260905200122 101 59 1.0 2.0 0.00 0.00 0.00 45 1010.9
20260905195615 101 149 1.0 2.0 0.00 0.00 0.00 45 1011.1
20260905195112 101 5 2.0 3.0 0.00 0.00 0.00 50 1011.1
20260905194828 101 5 1.0 3.0 0.00 0.00 0.00 47 1011.4
20260905194058 101 5 0.0 2.0 0.00 0.00 0.00 47 1011.4
20260905193552 101 84 0.0 0.0 0.00 0.00 0.00 46 1011.4
20260905193045 101 84 0.0 1.0 0.00 0.00 0.00 50 1011.5
20260905192540 101 84 1.0 3.0 0.00 0.00 0.00 48 1011.7
20260905192300 101 84 1.0 3.0 0.00 0.00 0.00 43 1011.7
20260905191527 101 56 1.0 4.0 0.00 0.00 0.00 48 1011.7
20260905191021 101 163 1.0 4.0 0.00 0.00 0.00 51 1011.8
20260905190515 101 190 1.0 4.0 0.00 0.00 0.00 51 1011.9
20260905190009 101 169 1.0 4.0 0.00 0.00 0.00 51 1011.8
20260905185516 100 36 2.0 6.0 0.00 0.00 0.00 44 1011.9
20260905184958 100 243 2.0 6.0 0.00 0.00 0.00 44 1012.0
20260905184454 100 156 1.0 5.0 0.00 0.00 0.00 47 1012.0
20260905184208 99 236 1.0 3.0 0.00 0.00 0.00 52 1012.1
20260905183449 99 111 1.0 4.0 0.00 0.00 0.00 50 1012.1
20260905182944 99 55 2.0 5.0 0.00 0.00 0.00 46 1012.2
20260905182444 98 67 3.0 5.0 0.00 0.00 0.00 47 1012.2
20260905181944 98 17 2.0 5.0 0.00 0.00 0.00 46 1012.3
20260905181444 98 19 1.0 3.0 0.00 0.00 0.00 47 1012.3
20260905181206 98 342 2.0 6.0 0.00 0.00 0.00 51 1012.4
20260905180453 98 5 3.0 6.0 0.00 0.00 0.00 48 1012.5
20260905180104 99 355 3.0 9.0 0.00 0.00 0.00 48 1012.4
20260905180015 100 14 2.0 7.0 0.00 0.00 0.00 48 1012.4
20260905180004 98 355 4.0 9.0 0.00 0.00 0.00 50 1012.5
20260905174437 100 178 2.0 7.0 0.00 0.00 0.00 48 1012.4
20260905174403 101 220 2.0 7.0 0.00 0.00 0.00 49 1012.5
20260905174032 100 263 2.0 7.0 0.00 0.00 0.00 47 1012.5
20260905172937 101 259 1.0 5.0 0.00 0.00 0.00 50 1012.6
20260905172438 101 175 1.0 5.0 0.00 0.00 0.00 47 1012.5
20260905171937 101 179 1.0 4.0 0.00 0.00 0.00 52 1012.7
20260905171438 101 187 1.0 4.0 0.00 0.00 0.00 50 1012.7
20260905170931 101 207 1.0 3.0 0.00 0.00 0.00 50 1012.7
20260905170426 101 166 1.0 3.0 0.00 0.00 0.00 54 1012.9
20260905165923 101 209 1.0 3.0 0.00 0.00 0.00 52 1013.0
20260905165423 100 193 1.0 3.0 0.00 0.00 0.00 48 1013.0
20260905164924 100 170 1.0 3.0 0.00 0.00 0.00 49 1013.0
20260905164424 100 155 1.0 4.0 0.00 0.00 0.00 51 1013.1
20260905163923 99 155 1.0 4.0 0.00 0.00 0.00 51 1013.2
20260905163424 99 170 1.0 4.0 0.00 0.00 0.00 50 1013.2
20260905162924 98 134 1.0 3.0 0.00 0.00 0.00 48 1013.3
20260905162424 98 176 2.0 5.0 0.00 0.00 0.00 52 1013.4
20260905161923 98 203 2.0 5.0 0.00 0.00 0.00 50 1013.5
20260905161901 98 148 2.0 4.0 0.00 0.00 0.00 53 1013.5
20260905160923 98 167 2.0 4.0 0.00 0.00 0.00 52 1013.4
20260905160436 98 171 1.0 4.0 0.00 0.00 0.00 54 1013.6
20260905155924 97 173 1.0 4.0 0.00 0.00 0.00 55 1013.6
20260905155423 97 271 1.0 4.0 0.00 0.00 0.00 54 1013.6
20260905154923 97 163 1.0 3.0 0.00 0.00 0.00 59 1013.5
20260905154424 96 185 1.0 3.0 0.00 0.00 0.00 57 1013.5
20260905153926 96 126 1.0 3.0 0.00 0.00 0.00 56 1013.6
20260905153424 95 218 1.0 3.0 0.00 0.00 0.00 59 1013.7
20260905153147 95 161 1.0 4.0 0.00 0.00 0.00 59 1013.8
20260905152437 94 157 1.0 4.0 0.00 0.00 0.00 60 1013.7
20260905151923 94 184 1.0 4.0 0.00 0.00 0.00 61 1013.7
20260905151422 94 188 1.0 4.0 0.00 0.00 0.00 64 1013.7
20260905150935 93 179 1.0 2.0 0.00 0.00 0.00 63 1013.8
20260905150423 92 150 0.0 2.0 0.00 0.00 0.00 64 1013.8
20260905145921 92 175 0.0 0.0 0.00 0.00 0.00 65 1013.7
20260905145421 91 143 0.0 0.0 0.00 0.00 0.00 64 1013.8
20260905144922 91 198 0.0 0.0 0.00 0.00 0.00 68 1013.6
20260905144421 90 155 0.0 0.0 0.00 0.00 0.00 69 1013.7
20260905143921 90 155 0.0 1.0 0.00 0.00 0.00 69 1013.7
20260905143645 89 140 0.0 1.0 0.00 0.00 0.00 70 1013.6
20260905142921 88 148 0.0 0.0 0.00 0.00 0.00 74 1013.6
20260905142651 87 148 0.0 0.0 0.00 0.00 0.00 75 1013.7
20260905142136 87 148 0.0 0.0 0.00 0.00 0.00 76 1013.6
20260905141417 86 147 0.0 0.0 0.00 0.00 0.00 76 1013.6
20260905140917 85 184 0.0 0.0 0.00 0.00 0.00 80 1013.6
20260905140636 84 227 0.0 0.0 0.00 0.00 0.00 83 1013.6
20260905135918 83 205 0.0 0.0 0.00 0.00 0.00 87 1013.5
20260905135418 82 123 0.0 0.0 0.00 0.00 0.00 90 1013.5
20260905134918 82 119 0.0 0.0 0.00 0.00 0.00 90 1013.6
20260905134417 81 119 0.0 0.0 0.00 0.00 0.00 91 1013.5
20260905133918 80 119 0.0 0.0 0.00 0.00 0.00 92 1013.4
20260905133637 80 67 0.0 0.0 0.00 0.00 0.00 92 1013.4
20260905132918 79 175 0.0 0.0 0.00 0.00 0.00 92 1013.3
20260905132646 79 71 0.0 0.0 0.00 0.00 0.00 92 1013.4
20260905131917 78 130 0.0 0.0 0.00 0.00 0.00 92 1013.5
20260905131417 78 130 0.0 0.0 0.00 0.00 0.00 92 1013.3
20260905130917 78 130 0.0 0.0 0.00 0.00 0.00 92 1013.3
20260905130415 77 130 0.0 0.0 0.00 0.00 0.00 92 1013.3
20260905125915 77 130 0.0 0.0 0.00 0.00 0.00 92 1013.2
20260905125413 76 130 0.0 0.0 0.00 0.00 0.00 92 1013.2
20260905124906 76 130 0.0 0.0 0.00 0.00 0.00 92 1013.1
20260905124400 75 130 0.0 0.0 0.00 0.00 0.00 92 1013.1